Wind_Speed
25 26 25 25 25 25 25 25 25 26 26 27 27 27 27 27 27 27 26 25 25 23 23 23 22 22 23 22 21 21 22 22 22 22 21 22 22 22 22 22 22 23 23
26 27 26 25 26 26 27 26 26 26 27 27 27 28 28 28 27 27 26 25 24 23 23 23 22 22 22 22 21 22 22 22 22 22 22 22 22 22 22 22 23 23 23
26 27 28 28 27 27 28 28 28 28 28 29 29 29 28 27 26 26 26 25 23 23 22 22 22 23 22 22 22 22 22 22 22 22 21 21 21 22 22 23 23 23 24
27 28 29 30 29 28 29 29 30 30 30 29 29 28 27 27 26 25 25 25 24 23 23 23 22 22 21 21 22 22 22 21 21 21 22 22 22 22 22 23 23 24 24
28 29 30 30 30 30 31 31 31 31 30 29 29 28 27 26 26 26 25 24 24 23 23 23 22 22 22 22 21 21 20 21 21 21 22 23 22 22 23 23 24 24 24
27 29 30 31 32 32 33 32 31 30 30 29 28 27 26 25 25 24 24 23 23 23 23 21 21 21 21 20 20 20 21 21 21 21 22 22 22 22 22 23 24 24 25
27 28 30 31 32 32 32 31 31 30 30 29 28 27 26 25 24 23 23 23 23 21 21 21 21 20 20 20 20 20 20 20 21 21 22 22 22 23 23 23 23 24 25
29 30 31 31 31 31 31 31 30 30 30 29 27 26 25 25 23 22 22 21 21 21 20 20 20 20 19 19 20 20 20 21 21 22 23 23 23 23 24 24 24 24 25
30 30 30 30 30 31 31 30 29 30 29 28 26 25 24 22 20 19 19 19 20 20 19 19 19 19 19 19 20 19 20 20 21 22 22 23 23 23 23 24 24 25 25
30 30 30 29 29 30 30 30 29 29 28 27 25 23 22 20 20 18 17 17 17 19 19 17 18 18 18 19 19 18 18 19 20 21 21 21 22 22 22 23 24 24 24
30 30 30 29 29 30 29 28 28 27 27 26 23 21 20 19 19 18 17 17 17 17 17 17 17 17 17 18 18 18 18 19 20 21 20 19 19 20 21 21 22 22 23
30 30 30 29 30 30 28 27 26 26 25 24 23 20 19 18 18 17 17 16 16 15 16 16 17 17 16 16 17 17 17 18 19 19 18 18 17 17 18 19 20 21 21
29 29 29 29 29 29 27 27 26 25 24 23 21 19 18 18 17 16 16 15 14 14 15 15 16 15 15 16 16 17 18 19 19 19 17 17 17 17 18 18 18 19 20
28 29 29 28 28 27 27 27 26 25 24 22 20 19 18 17 17 15 14 14 13 13 13 13 14 14 15 16 16 17 17 18 18 17 16 16 17 17 16 17 18 18 19
28 28 28 28 27 27 26 26 25 24 23 22 20 19 18 17 16 15 14 14 13 13 12 12 13 13 14 15 15 16 15 16 16 15 15 15 15 15 16 17 18 18 19
29 29 28 27 27 26 25 25 24 23 22 21 20 18 17 17 16 15 13 13 14 13 12 13 13 13 13 14 14 15 15 15 14 14 14 14 14 15 16 17 17 18 18
28 27 27 27 27 26 25 25 24 23 22 21 19 18 17 16 15 15 13 13 12 12 12 12 12 13 13 13 14 14 14 13 13 13 14 14 14 14 15 16 16 17 18
27 28 28 28 27 27 26 25 24 22 21 20 19 18 16 14 14 14 14 13 13 12 10 11 12 12 13 13 14 14 13 13 13 13 13 13 14 14 15 15 16 16 17
28 28 28 28 28 27 25 23 22 21 20 18 17 17 15 15 15 15 14 13 12 11 10 12 12 12 12 13 13 13 13 13 12 13 13 13 14 14 15 15 15 16 16
28 28 28 27 26 25 23 22 21 20 18 17 16 15 15 15 15 15 14 13 13 13 13 13 13 12 12 13 13 12 12 12 12 13 13 13 13 14 14 15 15 16 16
28 27 26 24 24 22 21 21 20 19 17 16 15 15 16 16 16 15 14 14 14 14 14 13 13 13 13 13 12 12 12 12 12 12 12 13 13 14 14 15 15 15 16
27 27 26 24 22 21 20 20 18 17 16 16 16 17 17 17 16 15 15 15 15 15 14 14 14 13 13 13 12 12 12 12 12 12 13 13 13 13 14 14 15 15 16
26 26 25 23 21 21 20 18 17 17 17 17 17 17 17 16 15 15 14 15 15 15 15 15 15 14 13 13 12 12 11 11 12 12 12 12 12 13 14 15 15 15 16
25 25 23 21 20 19 18 18 18 18 17 17 17 17 16 15 14 14 14 15 15 15 15 14 14 13 12 12 12 11 11 11 11 11 12 12 13 14 15 15 15 15 16
24 23 22 20 19 19 19 19 19 18 17 16 16 16 15 15 15 15 15 15 16 15 14 13 12 12 11 11 11 11 11 10 10 10 12 13 13 14 15 15 16 16 16
24 22 21 20 19 19 19 19 19 18 17 16 16 15 15 15 15 14 14 14 14 13 12 11 10 11 10 10 10 11 11 10 10 11 12 14 14 15 15 15 15 16 16
Wind_Direction
321 320 320 320 321 320 316 312 311 311 309 307 304 302 301 300 298 296 296 293 291 287 283 282 277 275 275 274 276 275 275 273 271 270 271 270 268 264 264 265 265 262 260
318 319 319 320 320 319 316 314 311 309 307 306 304 302 301 299 298 296 295 292 289 286 285 282 275 275 275 275 275 275 275 274 273 272 272 271 268 265 264 265 264 262 261
318 318 318 317 315 315 314 313 312 310 308 306 305 304 302 299 295 292 292 290 288 286 284 283 280 278 278 275 274 274 274 273 273 272 272 272 269 265 263 264 264 263 263
319 319 317 315 315 315 315 313 312 311 310 308 307 304 302 298 295 291 290 289 286 281 281 282 281 280 277 276 276 276 274 274 274 273 272 272 270 267 264 264 264 266 266
319 318 318 317 317 316 315 314 313 312 312 309 308 307 304 300 295 290 287 285 282 280 281 281 279 278 278 276 275 275 274 274 274 274 273 271 271 269 265 265 265 267 267
318 318 317 317 317 317 317 315 313 313 312 310 308 306 305 302 297 291 286 283 283 281 280 280 279 277 278 277 275 275 276 273 272 273 273 272 272 272 268 267 266 266 266
318 317 317 318 317 317 316 315 314 314 314 312 310 306 304 302 299 293 287 284 283 283 281 280 280 278 277 277 279 279 279 275 272 273 275 274 274 272 269 269 266 265 265
319 318 319 319 319 319 318 318 318 316 315 313 310 307 304 302 298 295 291 285 283 284 283 281 280 279 280 279 279 280 281 279 274 273 275 275 276 276 273 271 268 265 264
320 321 321 320 321 321 320 320 320 317 316 315 311 308 306 303 299 297 293 288 287 285 282 280 278 279 279 280 280 282 282 283 280 277 278 278 277 277 274 271 269 268 266
322 321 322 322 321 321 321 320 320 318 318 316 314 311 309 304 299 298 295 293 289 284 283 280 276 277 281 282 281 281 282 284 285 285 285 282 279 278 273 272 271 269 269
322 324 324 322 321 321 321 320 319 317 317 316 315 314 311 307 301 298 295 291 287 284 282 277 276 279 282 282 282 283 284 287 287 289 287 285 282 279 275 273 272 271 271
322 323 322 321 320 320 321 321 319 319 319 318 317 316 315 312 308 303 298 292 288 286 283 280 279 279 281 283 282 282 284 288 290 290 286 286 287 285 280 276 274 273 274
319 321 322 321 320 320 320 320 320 321 320 319 318 319 318 315 312 306 303 297 294 288 286 283 280 278 280 283 283 283 284 287 290 290 287 287 286 286 282 279 278 276 277
317 319 320 321 321 322 323 322 322 321 320 320 319 318 319 315 314 308 306 299 296 293 291 287 281 279 280 285 286 284 285 286 289 290 289 288 286 286 283 283 283 282 282
318 320 320 321 322 322 324 324 323 322 321 320 318 316 316 316 315 311 307 302 297 294 291 287 284 283 284 287 288 288 285 287 291 290 289 289 288 288 286 286 286 284 284
319 320 320 320 321 321 323 323 323 323 322 321 318 316 316 316 316 314 308 305 300 296 293 292 290 288 287 291 291 289 286 287 290 290 289 289 289 290 292 291 290 288 288
319 320 321 320 320 320 322 323 324 324 323 322 319 319 318 317 317 316 315 308 303 301 300 295 292 288 289 289 291 290 289 290 292 290 289 289 291 294 297 298 296 294 291
320 320 320 319 319 320 321 321 322 321 321 322 322 321 321 321 320 318 313 309 310 308 304 302 299 295 293 290 291 292 290 290 292 292 292 293 294 297 299 299 300 299 296
321 322 321 320 319 318 319 319 319 318 318 319 320 319 318 316 317 317 313 309 308 309 309 308 303 298 295 295 294 291 288 286 286 290 293 295 295 296 297 299 301 301 301
319 321 321 320 319 318 318 318 321 320 319 319 320 318 319 318 317 316 313 309 308 311 315 313 308 305 302 301 298 292 289 287 287 290 294 297 297 297 299 301 304 304 304
318 319 319 320 320 318 319 321 322 321 319 318 318 317 317 319 320 319 315 311 308 310 313 314 310 308 306 305 302 295 291 289 285 286 291 296 299 301 302 304 306 307 308
316 316 314 315 317 316 316 318 319 320 319 318 318 317 317 317 318 317 315 313 311 311 312 311 309 307 303 300 297 293 294 293 287 286 291 296 301 305 307 309 308 307 308
317 317 316 315 317 318 317 316 316 316 314 314 317 317 317 318 318 316 314 311 310 310 310 308 307 306 303 301 297 293 296 296 291 289 292 297 302 307 309 310 309 308 309
316 317 316 314 317 318 317 315 313 313 314 315 316 318 320 319 318 315 312 310 309 308 308 308 309 310 308 304 301 295 297 297 295 295 297 300 303 306 308 309 309 310 310
316 316 314 312 312 313 314 315 314 313 315 316 317 317 317 317 316 313 310 309 309 310 310 309 309 310 309 308 305 298 298 302 301 301 304 306 307 308 309 309 311 312 311
315 313 312 309 308 310 313 316 316 314 314 315 315 315 316 315 314 312 310 310 311 311 313 311 310 311 312 313 310 304 300 300 302 305 308 308 305 306 312 312 313 315 314
Height
5851 5848 5843 5840 5837 5833 5830 5827 5824 5820 5816 5812 5809 5806 5804 5801 5799 5796 5793 5791 5789 5787 5787 5786 5785 5785 5785 5785 5784 5784 5784 5783 5783 5783 5783 5782 5782 5782 5782 5782 5782 5783 5783
5847 5843 5838 5835 5831 5828 5824 5821 5818 5814 5810 5806 5802 5799 5796 5794 5791 5788 5786 5785 5783 5781 5781 5780 5779 5779 5778 5778 5778 5777 5777 5777 5777 5776 5776 5776 5777 5776 5776 5776 5776 5776 5777
5842 5839 5834 5830 5826 5822 5818 5815 5811 5808 5804 5800 5796 5792 5789 5786 5784 5782 5780 5779 5777 5776 5775 5774 5773 5772 5771 5771 5771 5771 5770 5770 5770 5769 5769 5769 5769 5769 5769 5769 5769 5769 5769
5838 5834 5829 5825 5820 5816 5812 5808 5804 5801 5796 5792 5788 5785 5782 5779 5777 5775 5773 5772 5770 5769 5768 5767 5766 5765 5764 5764 5764 5764 5763 5763 5763 5763 5763 5763 5762 5761 5762 5762 5762 5762 5762
5834 5829 5824 5819 5814 5810 5805 5801 5797 5793 5788 5784 5781 5777 5774 5771 5769 5767 5765 5764 5763 5762 5761 5760 5759 5758 5758 5757 5757 5757 5757 5756 5756 5756 5756 5755 5754 5754 5754 5755 5755 5754 5754
5830 5824 5819 5814 5809 5804 5798 5793 5789 5785 5780 5776 5773 5769 5767 5764 5761 5759 5757 5756 5755 5755 5754 5753 5752 5752 5751 5750 5750 5750 5749 5749 5749 5749 5748 5748 5747 5747 5747 5747 5747 5747 5746
5825 5820 5814 5808 5803 5797 5792 5786 5782 5777 5773 5768 5764 5761 5759 5757 5754 5752 5750 5749 5748 5747 5747 5746 5745 5745 5745 5744 5744 5743 5743 5742 5742 5742 5741 5741 5740 5739 5739 5739 5739 5739 5738
5819 5814 5808 5802 5797 5791 5785 5780 5775 5770 5766 5761 5757 5754 5752 5750 5747 5745 5743 5742 5741 5741 5740 5739 5739 5739 5739 5738 5738 5737 5736 5735 5735 5735 5734 5733 5732 5731 5731 5730 5730 5730 5730
5813 5808 5802 5797 5791 5785 5780 5774 5769 5764 5759 5755 5751 5748 5745 5743 5740 5738 5737 5735 5735 5734 5734 5733 5733 5733 5732 5732 5731 5731 5730 5729 5728 5727 5726 5725 5724 5723 5722 5722 5722 5722 5722
5808 5803 5797 5792 5786 5781 5775 5769 5764 5759 5754 5750 5745 5742 5739 5736 5734 5732 5731 5729 5728 5728 5728 5727 5727 5727 5726 5726 5725 5725 5724 5723 5722 5720 5719 5717 5716 5715 5714 5714 5713 5713 5713
5803 5797 5792 5787 5782 5776 5771 5765 5760 5755 5750 5745 5740 5736 5733 5731 5729 5727 5725 5724 5723 5722 5722 5722 5722 5721 5721 5721 5720 5719 5718 5717 5715 5713 5712 5710 5709 5708 5707 5706 5706 5705 5705
5798 5792 5787 5782 5777 5771 5766 5760 5755 5750 5745 5740 5736 5732 5729 5726 5724 5722 5719 5718 5717 5717 5716 5716 5716 5716 5716 5715 5714 5713 5712 5711 5709 5707 5706 5704 5703 5702 5701 5700 5699 5698 5697
5793 5788 5783 5777 5771 5766 5761 5756 5750 5746 5741 5736 5732 5729 5726 5723 5720 5717 5715 5713 5713 5712 5712 5711 5711 5711 5711 5711 5709 5708 5707 5705 5704 5702 5700 5699 5698 5697 5695 5694 5693 5692 5691
5788 5783 5777 5772 5767 5761 5756 5751 5746 5741 5737 5733 5729 5725 5722 5719 5716 5713 5712 5710 5709 5709 5708 5707 5707 5706 5706 5705 5704 5703 5702 5700 5698 5697 5695 5694 5692 5691 5690 5689 5687 5686 5685
5783 5777 5772 5767 5762 5757 5752 5747 5742 5737 5733 5729 5725 5722 5719 5716 5713 5711 5709 5707 5706 5705 5704 5703 5703 5702 5701 5700 5699 5698 5696 5695 5693 5692 5690 5689 5687 5686 5685 5683 5682 5680 5679
5777 5772 5767 5762 5757 5752 5748 5743 5738 5733 5729 5725 5721 5718 5715 5712 5710 5707 5705 5704 5702 5701 5700 5699 5698 5697 5696 5695 5694 5693 5691 5690 5688 5687 5686 5684 5683 5681 5680 5678 5676 5675 5673
5772 5766 5761 5757 5752 5748 5743 5738 5733 5729 5724 5721 5717 5714 5711 5708 5706 5704 5702 5700 5698 5697 5696 5694 5693 5692 5691 5690 5689 5687 5686 5685 5683 5682 5681 5680 5678 5677 5675 5673 5671 5669 5667
5766 5761 5757 5752 5747 5743 5738 5733 5729 5725 5721 5717 5714 5710 5708 5705 5703 5701 5699 5697 5695 5694 5692 5691 5689 5688 5687 5686 5684 5683 5681 5680 5679 5678 5677 5675 5673 5672 5670 5668 5666 5664 5662
5761 5756 5751 5746 5742 5737 5733 5729 5725 5721 5718 5714 5711 5708 5705 5703 5700 5698 5696 5694 5692 5691 5689 5688 5686 5685 5683 5682 5680 5678 5677 5676 5675 5673 5672 5671 5669 5667 5665 5664 5662 5659 5657
5756 5751 5746 5741 5737 5733 5729 5725 5721 5718 5714 5711 5708 5706 5703 5700 5698 5695 5693 5691 5689 5688 5686 5684 5683 5681 5679 5678 5676 5674 5673 5671 5670 5669 5667 5666 5664 5662 5660 5658 5656 5654 5652
5751 5746 5742 5737 5732 5728 5724 5721 5718 5715 5712 5709 5706 5703 5700 5697 5694 5692 5690 5688 5686 5685 5683 5681 5679 5677 5675 5673 5671 5670 5668 5667 5665 5664 5663 5661 5659 5657 5656 5654 5652 5649 5647
5746 5741 5737 5733 5729 5725 5721 5718 5715 5712 5709 5706 5703 5700 5697 5694 5691 5688 5686 5684 5683 5681 5679 5677 5675 5673 5671 5669 5667 5666 5664 5662 5661 5660 5658 5657 5655 5653 5651 5649 5647 5644 5642
5741 5736 5732 5728 5725 5721 5717 5714 5711 5708 5705 5702 5699 5696 5692 5689 5687 5685 5683 5681 5679 5677 5675 5673 5671 5668 5666 5665 5663 5661 5659 5658 5657 5655 5654 5652 5650 5648 5646 5644 5642 5639 5637
5736 5732 5728 5724 5721 5717 5714 5711 5708 5705 5702 5699 5695 5692 5689 5686 5684 5682 5680 5678 5675 5673 5671 5668 5666 5664 5662 5660 5658 5657 5655 5654 5652 5651 5649 5647 5645 5643 5641 5639 5637 5635 5632
5731 5727 5723 5720 5717 5714 5710 5707 5704 5701 5698 5695 5692 5689 5686 5683 5680 5678 5676 5673 5671 5669 5666 5664 5662 5660 5658 5656 5655 5653 5652 5650 5649 5647 5645 5643 5641 5639 5637 5635 5633 5630 5628
5726 5722 5719 5715 5713 5709 5706 5703 5699 5696 5694 5691 5688 5685 5682 5680 5677 5674 5672 5669 5667 5664 5662 5660 5659 5657 5655 5653 5651 5650 5648 5647 5645 5643 5642 5640 5637 5635 5633 5631 5628 5626 5624